Location: ??????????
(48.4699°N, 37.9573°E)
Time: 13:38:07
(UTC+00:00)

SL-24 R/B - Pass Details

Date: 20 January 2021
Orbit: 625 x 1075 km, 98.0° (Epoch: 26 February)

Event Time Altitude Azimuth Distance (km) Brightness Sun altitude
Rises 14:55:59 0° 167° (SSE) 2,900 7.6 -8.0°
Reaches altitude 10° 14:58:07 10° 168° (SSE) 2,008 6.8 -8.3°
Maximum altitude 15:02:26 82° 256° (WSW) 667 4.3 -9.0°
Drops below altitude 10° 15:07:06 10° 345° (NNW) 2,161 6.8 -9.7°
Sets 15:09:28 0° 346° (NNW) 3,141 7.6 -10.1°
